Weather History for Salt Point, LA

Change the Weather History Date:

Tuesday, October 9, 2012

  Actual Average Record
Temperature  
Mean Temperature 65 °F -  
Max Temperature 75 °F 78 °F 88 °F (1997)
Min Temperature 55 °F 63 °F 46 °F (2000)
Growing Degree Days 15 (Base 50)    
Moisture  
Dew Point 57 °F    
Average Humidity 73    
Maximum Humidity 93    
Minimum Humidity 53    
Precipitation  
Precipitation 0.00 in - - ()
Sea Level Pressure  
Sea Level Pressure 30.07 in    
Wind  
Wind Speed 1 mph (SW)    
Max Wind Speed 6 mph    
Max Gust Speed -    
Averages and records for this station are not official NWS values.
T = Trace of Precipitation, MM = Missing Value Source: NWS Daily Summary

Daily Weather History Graph

Daily Weather History Graph

Search for Another Location

Airport:

Trip Planner

Search our weather history database for the weather conditions in past years. The results will help you decide how hot, cold, wet, or windy it might be!

Date:

Astronomy

Oct. 09, 2012 Rise Set
Actual Time 7:04 AM CDT 6:41 PM CDT
Civil Twilight 6:40 AM CDT 7:05 PM CDT
Nautical Twilight 6:12 AM CDT 7:33 PM CDT
Astronomical Twilight 5:45 AM CDT 8:00 PM CDT
Moon 1:07 AM CDT (10/9) 2:45 PM CDT (10/9)
Length of Visible Light 12h 25m
Length of Day
11h 37m
Last Quarter, 36% of the Moon is Illuminated
Oct 9
Last Quarter
Oct 15
New
Oct 21
First Quarter
Oct 29
Full
Nov 6
Last Quarter

Hourly Weather History & Observations

Time (CDT) Temp. Dew Point Humidity Pressure Visibility Wind Dir Wind Speed Gust Speed Precip Events Conditions
12:53 AM 59.0 °F 54.0 °F 83% 30.10 in - Calm Calm - N/A   Unknown
1:53 AM 57.9 °F 54.0 °F 87% 30.09 in - Calm Calm - N/A   Unknown
2:53 AM 57.9 °F 54.0 °F 87% 30.09 in - Calm Calm - N/A   Unknown
3:53 AM 57.0 °F 54.0 °F 89% 30.09 in - Calm Calm - N/A   Unknown
4:53 AM 57.0 °F 54.0 °F 89% 30.09 in - Calm Calm - N/A   Unknown
5:53 AM 55.9 °F 53.1 °F 90% 30.10 in - Calm Calm - N/A   Unknown
6:53 AM 55.9 °F 54.0 °F 93% 30.11 in - Calm Calm - N/A   Unknown
7:53 AM 57.0 °F 55.0 °F 93% 30.12 in - Calm Calm - N/A   Unknown
8:53 AM 62.1 °F 57.0 °F 84% 30.13 in - Calm Calm - N/A   Unknown
9:53 AM 66.9 °F 59.0 °F 76% 30.13 in - Calm Calm - N/A   Unknown
10:53 AM 70.0 °F 60.1 °F 71% 30.13 in - Variable 3.5 mph - N/A   Unknown
11:53 AM 71.1 °F 59.0 °F 66% 30.12 in - West 5.8 mph - N/A   Unknown
12:53 PM 73.0 °F 59.0 °F 61% 30.09 in - Variable 4.6 mph - N/A   Unknown
1:53 PM 73.9 °F 57.0 °F 55% 30.06 in - Variable 3.5 mph - N/A   Unknown
2:53 PM 73.9 °F 57.9 °F 57% 30.04 in - West 4.6 mph - N/A   Unknown
3:53 PM 75.0 °F 57.0 °F 53% 30.02 in - WSW 4.6 mph - N/A   Unknown
4:53 PM 75.0 °F 57.0 °F 53% 30.02 in - SSW 3.5 mph - N/A   Unknown
5:53 PM 75.0 °F 57.9 °F 55% 30.01 in - Calm Calm - N/A   Unknown
6:53 PM 72.0 °F 59.0 °F 64% 30.02 in - Calm Calm - N/A   Unknown
7:53 PM 71.1 °F 57.9 °F 63% 30.03 in - South 3.5 mph - N/A   Unknown
8:53 PM 70.0 °F 57.0 °F 63% 30.04 in - Calm Calm - N/A   Unknown
9:53 PM 69.1 °F 57.9 °F 68% 30.05 in - Calm Calm - N/A   Unknown
10:53 PM 71.1 °F 59.0 °F 66% 30.05 in - Calm Calm - N/A   Unknown
11:53 PM 72.0 °F 64.0 °F 76% 30.05 in - Calm Calm - N/A   Unknown